Starlink 35211

operational
NORAD ID: 65757 Int'l Des: 2025-216 Owner: SPXS Country: US Constellation: starlink
NOTLE

Starlink 35211について

説明を読み込み中...

リアルタイム位置

3D地球を読み込み中...

次回通過

高度履歴

Altitude vs Time

uPlot chart will show altitude changes over time

軌道要素

1 65757U 25216Z 25340.88130686 .00052954 00000-0 17866-2 0 9995
2 65757 53.1603 44.0121 0001797 78.0726 282.0476 15.30211797 12330
Epoch: Dec 6, 2025 • Age: 12 hours

現在のステータス

高度 493.2 km
速度 7.62 km/s
衛星直下点 -49.32°S, 67.13°E
打ち上げ日 Sep 25, 2025
運用期間 0.1 years
タイプ internet

技術仕様

分類 Payload
質量 575.00 kg
乾燥質量 530.00 kg
総質量 575.00 kg
長さ 0.30 m
直径 4.10 m
スパン 29.00 m
形状 Box + pan
製造者 SPXS
バスタイプ Starlink V2MO
フェーズステータス In Orbit
所有者/国 SPXS/US

大規模コンステレーション

Loading constellations...